Theta_e
290 290 290 291 291 290 289 289 288 288 290 289 287 288 291 292 284 282 291 294 294 295 298 303 304 305 306 305 309 312 314 314 313 316 317 320 323 325 326 326 327 326 326 326 327 327 328 328 329 330 331 331 331 332 333 333 333 334 334 333 332 331 330 328 327 326 325 324 322 320 319 318 318 317 317 316 315 314 313 312 312 311 310 309 307 306 306
290 291 290 292 289 289 290 289 289 289 289 289 289 289 291 291 290 292 292 293 295 299 302 303 304 307 307 309 308 310 312 313 314 315 318 320 323 324 325 326 326 327 327 327 327 327 327 328 329 329 330 331 331 331 331 332 333 332 332 332 331 330 329 327 326 325 324 322 320 320 319 318 317 317 316 315 314 313 313 312 311 310 309 308 307 306 305
288 290 292 292 291 289 288 289 290 290 290 290 290 290 291 292 291 292 293 293 293 301 303 307 306 305 306 308 308 311 311 312 314 315 315 319 322 324 325 326 326 327 327 327 327 327 328 328 329 329 330 330 331 331 331 332 332 332 332 331 330 329 327 326 325 323 322 320 320 319 318 318 317 316 316 314 313 313 313 312 310 309 309 307 306 305 305
283 290 291 292 292 292 290 289 289 289 288 287 289 287 291 289 288 291 292 291 291 299 301 306 305 305 304 303 305 306 308 311 312 315 314 314 316 319 323 325 326 326 326 326 326 327 328 329 329 329 329 329 330 329 330 331 332 332 331 330 329 328 326 325 323 322 321 320 318 318 318 317 316 316 315 313 312 312 311 310 309 308 307 306 305 305 305
282 290 291 290 290 288 284 284 288 290 290 291 291 292 293 293 293 290 286 289 296 298 301 301 301 302 302 303 305 304 306 309 311 312 313 314 316 316 316 320 323 326 327 326 326 327 329 329 329 330 330 329 329 329 329 331 332 331 330 329 328 327 325 323 322 321 320 319 318 317 317 317 316 316 314 312 311 310 309 309 308 307 306 306 305 305 305
283 290 290 290 285 277 279 290 296 295 291 291 289 289 291 293 295 292 296 297 298 298 301 301 303 305 305 306 308 307 308 310 311 313 313 313 315 316 316 319 324 326 327 327 327 327 329 330 330 330 330 329 330 331 330 331 331 330 329 328 327 325 324 322 321 320 319 318 317 317 317 316 316 315 313 311 310 310 309 308 307 306 305 304 304 304 304
282 287 288 282 276 279 291 296 298 299 297 296 292 293 293 294 295 296 295 295 296 300 302 303 303 308 311 310 310 311 311 309 308 307 310 312 314 315 316 318 324 326 326 326 326 326 328 329 329 330 329 329 330 331 331 330 330 330 329 327 326 324 323 322 320 319 318 317 317 316 316 316 315 314 312 310 309 308 308 307 306 305 304 303 304 304 304
285 283 282 275 276 290 295 296 298 300 300 297 295 291 293 295 295 296 294 294 296 298 301 303 304 305 307 308 309 308 307 311 310 310 310 311 313 315 316 318 323 325 326 326 326 327 328 329 329 330 329 329 329 329 330 329 329 329 327 326 325 323 321 320 319 319 318 317 316 316 316 316 315 314 311 309 308 307 306 306 305 304 303 304 303 303 304
282 283 282 283 290 290 291 292 295 295 294 296 295 285 289 294 296 296 295 295 297 299 299 302 301 303 307 302 301 305 306 311 312 311 311 312 314 316 316 321 324 326 327 327 328 328 328 329 329 328 329 329 329 328 328 329 328 327 325 323 322 322 320 320 319 319 318 317 316 316 315 315 314 313 309 308 307 307 305 304 304 303 302 302 303 303 303
286 283 282 281 281 280 285 294 298 301 301 301 301 296 290 298 298 297 297 296 297 299 299 299 300 307 300 295 297 302 305 309 312 311 311 311 312 315 316 322 325 326 327 328 328 329 328 328 328 328 328 328 327 327 327 327 326 324 323 322 322 320 320 319 319 319 318 317 316 315 315 314 314 312 309 308 307 306 305 304 303 303 303 303 303 304 303
283 283 281 281 280 283 290 294 299 301 301 302 303 292 286 295 299 298 296 296 297 298 298 298 299 297 293 293 297 301 312 317 314 307 308 310 311 315 319 321 322 324 327 328 328 328 328 327 327 328 328 327 326 325 325 326 325 323 322 321 321 320 319 319 319 319 318 317 316 315 315 314 313 310 308 307 307 307 305 305 304 304 304 303 302 302 303
284 283 282 281 283 284 292 299 302 303 303 304 296 283 282 299 305 307 305 302 297 298 299 299 299 296 291 295 297 308 319 316 314 311 308 307 313 320 322 323 325 326 327 327 327 327 327 326 327 327 327 327 325 325 325 325 324 323 322 321 321 321 320 319 319 318 317 316 315 314 314 313 311 309 308 307 306 305 304 304 303 302 301 301 301 301 302
284 284 283 284 285 291 298 298 302 305 305 299 283 280 286 302 305 307 307 305 306 301 299 300 297 299 300 301 302 315 318 315 314 315 311 317 321 321 322 322 321 327 328 328 327 327 327 327 327 327 326 325 324 324 324 324 323 323 324 323 322 321 320 319 319 317 316 316 314 314 314 312 310 309 307 306 305 304 303 302 302 300 300 300 300 300 300
283 283 283 283 286 293 300 300 304 304 299 285 282 294 306 306 305 307 308 308 309 309 302 299 300 300 303 304 313 316 316 317 317 313 315 318 320 322 321 320 324 327 327 327 327 326 326 326 326 326 325 323 323 323 324 323 323 325 325 323 322 321 320 319 319 317 316 315 314 314 313 312 309 307 306 305 304 303 302 301 300 299 298 298 298 298 301
286 286 283 283 281 290 304 304 298 301 285 286 301 304 306 307 306 307 307 307 309 312 311 309 303 304 315 314 314 314 315 317 318 315 314 317 321 322 323 324 326 326 326 325 326 325 326 326 326 325 324 322 322 322 323 323 325 325 324 323 322 321 320 319 318 317 316 314 313 313 312 310 308 305 304 304 303 303 301 300 299 298 298 299 300 301 302
283 283 282 282 288 293 305 302 288 299 303 307 307 307 304 308 308 306 306 308 309 310 313 313 308 314 315 316 316 315 315 317 318 316 316 318 323 324 326 326 326 325 326 326 325 325 325 325 325 325 323 321 321 321 322 324 325 325 324 323 322 320 318 317 315 315 314 313 313 312 310 308 306 304 304 304 303 302 301 300 299 300 301 301 301 301 300
287 285 287 293 297 303 306 306 304 305 308 310 310 308 308 307 307 308 306 307 309 308 308 312 314 314 315 315 316 316 316 317 316 315 316 318 323 325 325 325 324 325 326 324 324 324 325 325 325 325 324 321 319 320 323 324 324 324 323 322 320 318 316 313 313 313 313 312 310 309 309 307 305 304 304 304 302 302 301 300 300 300 300 301 300 300 300
300 300 300 300 301 302 304 308 309 308 309 310 310 309 308 308 307 308 306 309 309 310 310 309 310 313 313 313 314 313 315 314 314 314 315 315 317 320 323 324 324 325 325 324 324 323 324 325 325 324 324 323 319 321 324 323 324 323 320 318 315 314 313 312 312 312 311 310 309 308 307 307 306 305 304 303 302 301 301 300 300 300 300 300 299 299 298
292 285 299 301 302 304 306 307 310 310 310 309 309 308 308 309 310 310 311 310 311 311 311 311 310 312 314 315 315 316 315 313 311 313 314 315 316 317 319 320 320 325 324 323 323 323 323 324 325 324 324 324 323 324 324 324 323 321 318 315 312 312 311 311 311 311 309 307 306 306 306 306 306 305 304 303 302 301 300 300 299 299 299 298 298 297 297
290 291 300 303 306 306 308 307 305 306 310 310 311 310 310 309 311 312 312 313 311 313 312 312 310 312 315 315 314 315 314 313 312 313 315 315 315 316 319 318 318 323 324 323 322 322 322 324 325 325 324 323 324 325 324 324 321 319 314 312 311 311 310 309 308 309 308 299 303 305 305 305 305 304 304 303 302 301 300 300 299 298 297 296 296 297 297
297 301 303 304 304 305 306 307 308 308 311 311 311 311 310 310 311 312 313 313 313 313 312 313 312 311 313 315 315 315 314 313 312 313 314 316 317 317 317 317 318 321 322 322 323 322 322 324 325 325 324 324 325 324 324 323 320 316 313 309 311 310 309 308 307 306 306 305 305 304 304 305 305 305 303 303 302 301 302 301 300 298 297 297 297 297 299
286 291 297 302 292 291 300 304 306 309 310 311 310 310 309 310 309 310 311 312 313 314 313 312 312 311 311 312 314 316 315 314 314 315 316 317 318 318 318 319 320 319 318 320 321 321 322 324 324 324 324 324 323 323 323 321 319 315 312 312 311 309 308 307 306 304 304 305 305 305 304 304 304 304 299 299 301 301 300 297 295 295 294 297 298 298 298
287 298 303 305 304 302 303 304 309 310 311 309 309 309 310 310 311 312 309 309 310 312 312 313 312 311 312 313 314 313 314 314 315 315 316 316 318 319 319 318 318 318 319 319 319 319 321 322 322 322 322 323 322 322 321 319 317 314 313 310 309 308 306 305 302 303 304 304 305 305 304 304 304 302 301 300 296 296 297 296 294 293 293 294 295 294 298
301 304 304 307 305 302 304 308 309 310 312 312 310 311 312 311 311 310 309 311 309 310 312 314 313 313 313 314 315 314 313 314 314 314 315 317 317 316 317 317 316 317 318 318 319 319 321 321 321 322 321 322 322 322 320 317 316 314 312 310 309 308 307 304 301 302 304 304 304 304 304 304 303 302 301 299 299 295 295 294 294 293 293 293 293 292 293
300 306 306 309 307 306 308 309 310 311 312 312 311 310 311 309 310 310 310 310 311 312 312 313 314 314 313 314 314 314 314 314 313 312 312 313 312 315 316 317 317 316 318 319 319 319 320 320 320 320 320 321 321 321 319 317 316 314 313 311 309 308 306 304 303 302 303 303 303 304 303 303 303 302 301 299 298 297 295 292 292 292 292 292 293 292 292
305 306 308 309 308 307 309 310 309 309 311 312 310 311 311 311 311 310 310 310 310 311 312 312 313 315 316 315 315 316 316 314 309 312 316 316 316 317 317 317 317 318 318 319 320 320 319 319 319 319 318 318 320 320 318 316 316 315 314 313 310 308 305 304 304 304 304 303 303 304 304 304 303 303 301 300 298 296 293 292 291 291 292 291 291 291 292
308 309 308 305 306 306 308 307 305 309 311 312 310 310 310 310 310 310 310 311 310 311 312 313 313 313 313 314 313 315 315 314 315 315 316 316 315 317 317 317 317 317 316 317 317 315 314 317 317 318 318 319 319 318 317 316 316 315 314 312 309 298 295 299 305 305 305 304 304 304 304 304 303 301 301 299 296 294 294 292 291 291 293 294 290 291 293
309 308 307 302 301 305 305 308 309 309 311 310 309 308 308 310 309 308 308 309 309 311 311 311 312 312 312 313 314 313 315 315 314 315 314 314 315 318 317 317 318 317 317 316 317 317 316 318 318 317 318 318 318 318 317 317 316 315 313 309 306 305 305 303 305 305 305 305 305 305 305 305 304 302 301 298 295 295 294 294 293 292 291 290 289 290 291
305 306 307 307 307 308 310 309 308 309 308 309 309 309 309 308 309 308 307 308 309 309 309 310 311 312 313 313 313 313 312 314 314 313 314 315 315 316 317 319 318 317 317 316 317 318 318 318 317 315 315 317 318 318 317 317 315 312 308 307 307 306 306 306 306 305 305 305 304 304 299 301 303 302 301 299 296 296 295 294 293 293 292 291 291 291 292
305 306 306 307 308 307 307 306 306 306 307 307 308 307 308 309 306 306 307 307 308 308 308 308 309 310 312 312 313 313 312 312 313 314 315 315 315 316 316 317 318 317 317 316 316 317 317 316 315 314 314 316 316 315 315 314 312 310 308 308 307 306 306 306 306 305 305 305 304 295 299 301 303 302 299 299 298 297 295 293 292 291 292 292 291 290 291
306 307 308 309 309 306 305 305 304 305 306 306 306 306 309 306 304 303 304 307 309 309 309 310 309 310 310 310 311 312 313 314 314 314 314 314 314 314 315 316 315 313 314 315 316 316 316 315 315 314 315 315 315 314 314 312 310 309 308 308 307 298 296 295 298 306 305 302 300 301 301 301 302 300 296 298 297 297 297 295 292 293 293 294 293 291 292
305 305 307 305 303 304 304 304 304 304 303 304 304 303 302 303 302 303 304 305 307 308 309 308 308 309 310 310 310 310 311 311 313 313 313 313 313 313 314 315 314 310 316 316 316 315 316 315 313 314 315 315 315 314 313 312 311 310 308 302 305 302 296 294 300 300 301 299 300 301 299 302 302 301 298 297 298 297 298 296 294 293 294 294 293 292 292
303 301 300 300 301 303 303 302 302 303 303 303 303 303 303 303 303 303 304 304 304 304 305 305 308 310 309 309 309 310 310 309 310 312 312 311 312 312 311 312 312 313 314 314 316 316 315 314 313 314 315 315 315 314 313 312 311 309 307 306 304 301 295 296 297 301 301 301 301 301 301 301 301 301 300 298 299 298 298 296 294 294 295 296 296 295 293
303 301 300 302 303 301 301 302 304 304 304 304 305 305 304 304 304 304 304 304 305 305 306 306 307 310 310 310 311 311 311 309 307 307 307 309 310 311 312 312 313 313 312 311 312 314 314 314 314 314 314 315 315 314 313 312 310 308 307 305 303 300 300 300 299 302 301 300 301 298 300 298 302 302 301 299 300 300 297 296 294 295 296 297 298 297 292
307 306 306 306 306 305 304 304 304 305 305 305 306 305 306 306 305 303 302 304 304 305 307 309 309 310 309 309 309 310 309 308 307 308 308 308 309 309 310 312 313 312 311 310 311 312 313 313 314 314 314 313 312 312 312 312 310 308 307 305 301 302 303 302 302 302 300 301 301 302 302 302 302 298 299 301 301 299 298 297 296 295 296 297 298 298 293
306 306 305 305 306 305 306 304 303 304 305 305 306 305 304 304 304 304 304 304 306 307 307 308 308 307 306 305 305 305 306 307 308 308 308 308 309 309 311 312 311 310 310 311 312 312 313 313 301 301 314 314 314 314 314 312 311 309 306 305 302 301 301 301 303 302 301 302 301 301 302 299 300 300 300 301 302 302 301 300 299 296 298 298 299 296 293
308 306 305 305 306 305 305 304 304 304 304 304 305 305 305 305 306 305 305 305 305 305 305 306 306 305 304 303 304 304 304 305 305 306 306 308 309 309 308 310 310 309 309 309 310 311 313 311 297 296 308 310 311 312 312 300 311 307 305 305 303 302 300 301 302 302 302 301 301 300 299 297 301 303 300 303 302 302 302 302 298 298 298 298 296 292 290
305 306 305 304 304 305 304 305 305 304 304 303 305 304 305 306 306 306 305 304 305 305 305 304 304 304 304 304 304 303 302 303 303 305 305 306 307 309 309 307 306 308 306 307 308 307 307 303 294 305 312 311 310 311 305 294 296 306 305 304 303 301 300 301 300 300 300 302 297 300 300 301 302 303 303 304 304 303 301 301 300 300 299 296 293 292 291
304 305 307 306 306 306 304 305 305 304 304 303 304 304 304 305 304 305 304 304 305 304 304 303 302 302 303 304 303 303 303 302 302 304 303 303 304 308 307 306 306 307 308 310 308 305 305 305 310 311 311 312 312 309 297 292 295 306 305 304 303 302 300 301 301 299 299 300 299 299 300 300 301 302 302 303 303 300 298 300 300 299 297 295 293 291 292
303 303 304 303 302 303 304 304 303 304 304 305 303 303 303 303 304 304 304 304 304 302 303 302 301 300 300 301 301 301 302 303 303 303 302 303 304 305 304 304 305 306 305 300 307 305 301 298 305 310 309 308 308 306 302 296 297 303 304 303 303 302 302 300 300 300 300 300 299 295 300 298 300 300 300 301 302 302 301 300 299 298 297 295 293 292 291
303 302 303 304 304 305 304 304 303 303 303 304 305 304 304 305 305 304 304 303 303 303 302 301 300 300 301 301 301 302 301 301 302 304 303 302 302 301 299 298 303 303 303 304 304 302 298 301 305 308 308 308 307 302 304 297 304 306 305 304 303 303 303 302 301 301 300 300 299 299 300 300 298 300 299 300 301 302 301 300 298 297 297 295 294 293 292
303 304 304 303 303 303 303 304 303 303 303 304 303 305 306 306 305 305 303 303 302 302 302 301 297 301 301 302 302 300 301 301 302 303 305 303 302 300 299 300 304 301 291 295 300 299 301 304 302 299 305 306 304 296 297 302 307 306 305 304 303 302 302 301 301 301 300 300 300 301 300 301 300 300 299 298 298 299 300 297 296 297 298 297 296 295 293
301 303 302 301 302 302 302 303 303 302 302 302 304 304 306 306 306 304 303 302 302 302 302 302 300 299 300 301 301 301 301 302 302 304 304 304 305 304 302 303 302 299 291 297 302 302 302 301 300 295 296 301 299 292 296 307 306 306 304 303 301 301 301 301 301 301 301 300 300 301 301 301 300 300 299 299 298 296 296 297 297 297 296 297 297 296 296
296 300 300 302 303 303 302 302 301 300 299 301 303 304 305 304 305 304 301 300 301 301 302 301 301 301 300 300 299 299 299 300 303 305 304 302 303 304 304 301 299 295 291 295 298 299 299 297 294 291 288 290 292 295 303 304 306 305 304 302 301 302 301 300 299 300 300 300 299 300 300 299 299 300 299 296 296 297 296 296 297 297 297 297 297 296 296
294 294 294 295 300 302 303 302 302 302 299 300 303 304 304 303 303 303 302 302 302 302 300 301 301 300 300 301 300 301 301 302 303 303 301 298 297 299 301 295 297 296 293 293 295 295 294 293 290 290 292 292 294 296 303 303 304 303 304 303 303 302 302 302 301 301 300 301 300 299 297 299 300 299 299 297 293 295 297 297 297 298 297 297 297 296 295
292 292 291 290 293 298 303 303 303 301 301 300 300 299 300 302 302 302 302 302 302 302 302 302 301 301 302 302 302 303 304 303 303 303 302 300 298 299 297 294 295 293 293 293 295 293 289 287 289 290 291 292 294 300 302 302 299 301 304 304 304 302 303 302 302 301 302 300 299 299 300 300 299 299 297 296 295 296 295 294 294 296 297 297 297 297 296
290 291 290 290 291 292 297 302 301 297 297 296 296 297 298 299 299 300 300 301 302 302 302 301 301 303 304 304 303 302 301 301 302 301 300 299 296 295 292 290 289 289 291 293 292 293 289 288 288 289 289 289 291 300 303 303 302 302 302 303 302 302 302 302 302 302 300 300 298 297 296 298 300 300 298 296 297 295 294 294 295 296 296 295 295 295 293
289 290 290 290 290 291 292 294 294 293 293 292 294 296 297 296 296 296 298 300 301 302 301 300 299 299 299 300 302 305 304 302 298 301 303 300 300 299 298 294 292 289 289 290 288 287 286 286 285 285 285 287 292 297 301 301 302 302 303 302 301 301 300 300 300 299 299 299 298 299 297 298 297 297 298 297 296 294 294 293 292 292 293 294 293 293 294
288 289 290 289 289 289 288 288 289 289 290 291 292 292 295 294 293 292 293 295 299 299 297 296 296 296 297 296 297 299 298 298 299 299 303 302 300 298 295 290 288 291 294 296 295 290 285 285 285 285 285 287 295 299 300 301 301 301 302 302 302 302 302 301 302 302 302 301 300 299 300 299 299 299 299 297 297 297 294 294 294 292 292 291 292 293 292
286 287 288 287 287 287 287 287 287 288 289 289 290 290 293 292 289 289 289 291 293 294 295 293 293 293 293 294 295 295 296 296 296 297 297 298 300 299 298 299 296 292 294 297 296 290 286 284 286 289 292 296 299 300 302 303 302 301 302 300 298 298 296 294 293 295 299 299 299 297 297 297 298 297 296 296 297 298 298 297 295 293 291 291 292 293 292
285 285 286 286 287 287 287 287 287 288 288 288 288 289 290 290 288 288 288 288 290 290 291 291 290 290 290 291 292 293 293 294 293 291 293 294 294 292 291 294 294 292 294 294 296 294 294 293 293 292 292 295 298 301 301 302 301 300 299 299 298 296 296 296 297 300 300 298 298 298 298 297 300 299 297 294 293 294 295 296 294 295 292 293 293 293 293
286 286 286 286 286 286 287 287 287 287 288 287 287 288 288 289 289 288 287 287 287 287 288 288 287 289 289 289 289 290 291 291 291 292 290 291 292 292 291 290 293 292 294 295 295 295 294 294 291 290 290 295 297 299 294 295 298 299 298 296 297 297 295 295 294 296 297 297 297 296 295 298 296 296 296 296 294 294 294 296 295 295 293 292 291 291 292
Wind_Speed
11 12 16 14 10 9 11 10 9 10 14 14 11 9 9 0 2 7 4 5 3 6 4 4 7 9 10 5 4 7 9 6 3 15 16 14 15 16 18 19 20 19 18 17 18 17 16 14 15 15 14 13 12 11 11 12 11 13 13 14 14 15 15 15 14 13 12 12 11 11 12 12 12 11 11 11 10 10 9 8 8 9 8 9 9 8 7
12 15 16 17 15 13 19 12 11 12 11 13 13 11 7 6 8 9 5 9 5 4 5 4 6 8 11 9 3 3 13 11 7 7 18 20 19 19 19 19 19 19 20 19 17 16 15 16 16 15 14 14 14 13 13 12 11 10 13 14 14 14 15 14 13 13 13 12 12 12 12 13 12 11 11 10 10 10 10 10 9 9 8 8 9 8 8
7 11 12 15 19 14 7 8 12 13 12 12 13 11 10 11 13 8 5 7 7 2 5 4 4 6 10 13 11 1 6 10 11 11 4 9 14 16 18 20 19 18 17 16 17 17 17 18 17 15 14 14 13 13 12 12 12 12 13 14 13 13 13 13 13 13 13 13 13 13 12 12 11 12 11 10 10 10 10 10 10 9 9 9 8 7 8
5 4 6 7 9 9 7 10 9 12 12 11 8 9 8 9 8 3 3 4 5 6 11 4 4 8 10 11 12 6 4 6 7 14 7 5 7 7 8 10 12 15 15 16 17 18 18 18 17 16 14 13 13 14 13 12 11 12 12 13 14 14 13 13 14 14 13 14 13 13 12 12 12 12 11 11 10 10 10 11 9 7 8 8 7 7 8
4 4 8 9 9 9 10 8 8 9 8 9 9 10 10 11 6 5 4 7 4 4 6 6 4 5 8 11 13 5 7 2 8 11 11 8 7 4 4 4 7 10 14 16 18 16 15 16 16 16 15 14 14 14 13 11 11 12 13 13 14 14 13 13 13 14 14 14 13 13 13 13 12 11 11 11 11 10 10 9 8 8 7 8 8 8 9
5 8 10 7 6 3 7 6 5 6 6 8 11 10 10 9 5 4 7 5 5 7 5 4 1 3 8 9 13 8 1 6 3 6 11 14 12 10 8 9 10 11 12 13 15 16 16 16 17 16 15 15 13 12 12 11 13 13 12 13 14 14 14 14 14 13 14 14 14 13 12 12 12 12 11 11 10 9 9 8 9 8 7 9 8 8 9
1 3 8 6 3 8 6 11 13 9 10 11 10 12 12 9 6 6 7 4 3 4 6 8 7 4 7 15 14 14 4 8 11 11 10 14 16 18 17 14 13 14 14 13 13 13 14 15 14 14 13 12 13 13 13 13 12 13 14 12 13 14 14 14 14 14 14 14 14 13 13 12 12 12 12 10 10 9 10 10 10 10 10 9 8 8 8
1 3 1 1 5 5 12 14 9 6 4 5 10 9 10 10 9 7 9 7 5 6 3 5 8 12 14 12 13 13 10 9 11 8 7 10 14 15 14 15 15 14 13 14 15 14 13 14 14 15 14 13 15 14 13 13 12 12 12 15 13 13 14 14 14 14 15 14 14 13 13 12 12 12 11 11 11 10 9 7 6 7 5 7 8 8 8
1 1 1 6 6 9 6 3 4 5 1 6 9 8 11 10 8 7 8 9 9 9 5 2 5 6 7 6 7 13 8 7 6 8 9 11 12 12 11 12 14 15 15 16 16 14 14 15 15 14 14 14 14 14 14 13 13 13 12 12 14 15 16 15 15 14 14 14 14 14 14 14 13 12 11 10 9 9 10 8 9 8 8 7 7 8 7
4 2 2 2 2 3 7 5 4 3 5 8 13 8 7 8 11 7 7 8 11 9 6 5 5 0 2 5 9 8 4 4 5 5 6 6 7 11 10 13 16 15 15 13 15 17 17 15 15 14 14 15 15 14 14 14 14 12 14 14 13 13 14 14 15 15 15 15 15 15 14 14 13 11 10 9 11 10 12 11 10 9 9 8 8 7 8
3 1 2 2 2 5 7 12 9 8 12 11 13 1 6 3 6 6 5 7 7 7 7 6 7 4 8 6 9 6 1 2 1 4 5 6 9 10 11 11 12 13 13 17 16 16 17 16 15 16 16 17 15 15 14 14 14 14 13 13 15 15 14 14 14 13 13 14 15 15 14 13 11 12 12 12 11 9 9 9 9 8 8 8 7 6 7
3 3 2 4 3 6 6 6 3 6 10 9 3 1 4 3 12 10 5 4 4 8 8 9 11 8 10 10 9 2 3 4 2 3 5 6 5 9 13 13 16 15 13 14 15 18 18 17 16 18 17 16 16 16 15 14 15 16 15 14 13 12 13 13 12 12 12 14 14 15 15 12 10 10 9 9 10 10 9 8 9 8 7 8 8 7 7
4 4 3 2 4 3 5 6 8 4 3 1 0 4 4 12 16 14 9 6 4 2 9 10 10 11 12 9 7 3 2 3 1 2 4 9 12 13 11 10 12 13 16 18 19 18 15 16 16 17 16 16 15 15 15 13 15 15 15 14 14 13 13 13 12 12 11 13 13 11 11 11 11 10 9 10 10 9 10 8 9 8 8 8 8 7 7
4 3 4 5 5 5 5 4 2 3 1 1 5 1 4 7 11 16 18 13 6 1 2 6 10 9 8 7 4 4 4 4 4 3 1 4 9 13 13 16 15 14 14 13 15 15 15 17 17 16 16 16 15 15 16 15 13 11 12 15 14 13 14 13 13 13 12 10 11 12 12 11 10 10 8 9 10 10 9 9 11 10 8 8 8 6 6
1 0 2 3 3 2 4 1 5 5 5 5 1 5 7 6 8 11 16 17 16 7 4 2 6 6 4 5 3 4 4 5 5 5 5 5 7 9 11 12 14 16 14 15 15 15 14 15 15 15 17 17 15 14 15 15 13 13 12 14 14 14 14 14 13 13 12 13 12 9 10 11 12 11 10 11 10 10 11 11 11 11 10 9 9 8 7
2 1 2 2 5 6 1 4 2 3 5 5 3 4 7 6 6 10 12 13 14 19 16 11 4 6 6 5 5 1 2 2 3 3 5 8 6 7 11 14 14 16 15 14 14 13 13 13 13 14 16 16 15 15 15 12 12 12 13 14 14 14 14 13 12 13 12 12 11 11 13 12 11 12 11 11 10 10 10 10 9 9 8 9 9 10 9
4 3 5 6 4 6 5 3 4 3 8 2 5 8 8 5 8 6 6 9 13 12 20 18 6 5 5 5 4 3 1 4 7 9 13 7 1 9 12 12 14 14 16 16 14 13 12 14 13 13 13 15 14 15 13 12 12 12 12 12 12 12 12 12 13 12 12 11 11 11 11 12 12 11 11 11 10 9 9 9 9 9 9 9 10 10 9
9 3 9 8 9 11 11 10 2 5 1 2 0 6 8 6 3 3 3 4 7 14 14 19 10 3 5 6 3 4 8 7 6 10 13 16 17 15 8 9 12 12 14 16 17 16 15 15 13 13 13 14 17 13 12 12 12 12 12 12 12 12 12 12 12 13 12 10 10 11 11 10 11 11 13 12 11 10 9 9 9 9 10 9 9 9 9
7 4 12 12 9 3 10 11 11 4 2 1 2 7 7 7 6 6 5 3 9 10 13 17 20 8 2 5 4 6 8 8 8 12 15 14 10 6 5 13 4 12 14 15 15 15 15 13 12 11 13 12 13 12 13 11 11 12 12 13 13 12 13 12 12 12 13 10 9 9 9 9 9 9 9 9 10 10 10 10 10 10 10 9 9 9 8
2 4 6 9 7 3 6 2 9 6 7 6 8 5 12 8 4 3 4 6 9 9 11 11 14 14 10 6 4 4 6 7 8 10 13 13 9 6 7 2 12 6 8 11 13 12 12 12 12 12 11 12 12 12 12 12 12 12 13 13 13 13 13 11 10 11 11 14 14 10 10 10 10 9 9 10 11 12 12 13 12 11 10 10 10 10 9
3 3 5 8 9 6 3 6 6 3 1 3 4 6 10 5 7 7 7 4 4 7 9 7 9 11 16 14 5 5 5 6 5 6 8 10 10 9 7 4 3 3 1 8 11 11 10 10 11 11 11 10 11 12 12 13 13 13 12 13 13 13 11 10 10 9 10 11 10 10 10 10 10 11 14 13 12 9 7 8 11 13 12 10 9 9 8
2 2 5 3 3 5 7 6 6 6 4 2 2 5 10 6 8 5 3 2 1 1 5 9 3 12 13 18 18 6 6 5 5 8 7 7 8 11 9 3 1 6 1 1 4 8 7 7 9 10 10 9 9 11 11 12 14 13 12 11 11 11 10 10 10 9 9 9 10 10 10 10 9 6 2 4 6 9 9 10 10 10 11 11 11 8 9
4 5 5 5 4 7 11 10 8 4 3 2 4 6 9 10 5 5 3 6 4 1 2 4 11 12 14 11 11 13 12 7 6 7 7 7 7 8 7 6 4 6 4 10 13 12 9 6 7 9 11 11 11 10 11 12 13 15 14 10 9 9 10 9 10 10 9 9 9 9 9 9 8 8 6 6 7 8 7 11 12 13 13 13 13 10 10
7 5 4 3 3 6 7 4 6 7 5 4 3 4 6 7 4 4 4 5 6 8 9 10 9 9 12 10 7 3 2 7 8 8 7 8 8 6 8 8 7 7 6 6 8 9 7 9 11 11 10 10 12 11 11 12 13 13 13 13 11 9 8 8 10 10 9 9 9 9 9 8 9 8 8 8 5 4 6 13 13 13 15 15 14 11 12
3 1 0 3 7 8 7 7 4 7 6 7 5 5 6 7 7 3 4 6 6 8 8 8 7 6 10 12 8 3 5 3 1 6 8 9 9 9 5 3 6 8 6 8 4 6 8 9 9 9 10 11 12 13 13 13 13 12 12 12 12 11 9 10 9 9 9 9 8 9 10 10 10 9 9 9 10 8 2 3 13 15 13 13 15 13 12
2 2 4 6 8 10 6 4 6 7 7 5 2 7 7 5 4 4 4 4 5 5 5 5 5 4 4 8 7 4 2 4 4 5 7 7 8 6 5 5 4 6 1 4 8 9 9 9 10 10 8 6 7 9 12 14 15 14 13 12 13 12 11 11 11 9 9 9 9 9 9 9 10 11 11 10 9 8 8 5 1 4 11 12 11 13 12
1 1 2 6 4 2 7 4 3 6 2 1 3 9 7 4 5 2 2 2 5 5 5 5 4 4 4 4 3 5 8 5 6 6 6 6 6 5 7 10 10 7 2 2 5 8 9 9 8 10 11 10 8 9 11 11 10 10 10 10 10 12 17 13 10 10 9 9 10 9 10 10 10 10 10 10 9 10 10 10 10 9 8 5 4 9 8
1 2 1 1 4 5 1 1 7 10 4 4 6 6 3 4 4 5 5 5 6 6 6 6 6 6 6 6 7 5 6 9 9 7 7 8 6 3 6 8 7 5 3 3 4 6 8 8 9 8 7 5 8 11 12 12 12 11 9 11 12 11 11 12 11 10 10 10 8 8 7 8 10 10 9 9 10 10 9 9 9 8 7 6 6 5 5
2 3 3 3 5 3 3 2 4 7 2 6 6 5 4 4 5 4 3 4 3 4 5 5 6 6 6 6 6 6 5 6 9 9 9 9 7 4 4 8 10 8 6 6 5 5 7 7 8 8 5 6 8 9 10 11 10 10 10 11 10 10 10 10 10 9 9 10 9 9 10 8 8 8 8 8 8 8 8 9 8 7 7 6 4 3 3
3 4 3 4 4 4 5 5 6 6 8 7 4 6 4 3 3 4 3 4 5 5 4 4 5 5 5 6 6 6 6 6 7 7 7 7 6 6 6 7 7 6 6 6 6 7 8 8 8 8 6 7 9 10 11 11 11 12 13 14 13 11 10 10 10 10 10 10 9 10 9 9 9 9 8 9 10 10 10 9 10 9 8 7 7 8 8
4 4 3 4 5 3 3 4 5 4 5 6 7 6 5 2 5 7 7 6 5 5 5 5 5 5 5 4 4 5 6 7 7 7 6 6 5 5 5 6 7 6 5 4 4 6 7 8 7 7 6 8 10 11 12 11 11 10 10 9 9 12 14 14 11 10 9 10 10 10 8 8 7 7 9 8 8 8 8 8 9 9 8 8 8 8 7
2 5 6 5 3 4 5 4 4 4 6 8 9 10 4 6 8 8 6 6 5 4 4 5 5 4 4 5 4 4 5 6 7 7 7 5 5 4 5 5 6 7 6 4 4 5 7 7 8 6 6 7 7 6 8 9 9 10 9 8 9 7 9 12 7 7 8 7 8 8 9 11 10 10 9 9 10 9 9 9 9 9 8 8 8 8 7
1 4 6 3 3 3 3 3 4 5 7 11 10 8 5 7 7 7 7 6 7 7 6 5 5 3 4 4 5 5 4 4 5 6 6 6 6 5 5 4 4 5 6 6 6 6 7 9 8 6 6 7 8 8 8 8 8 8 7 7 7 8 8 8 8 8 7 9 8 8 8 9 9 10 10 10 9 9 9 9 9 9 9 9 9 8 9
3 5 4 2 3 2 1 1 1 3 4 8 12 11 4 6 7 8 7 7 8 8 7 7 5 2 5 6 7 7 8 7 6 5 4 5 5 5 5 6 6 6 5 4 5 6 7 8 8 7 7 8 8 8 8 8 7 7 8 8 8 8 7 7 8 8 8 9 9 10 8 5 7 8 8 8 9 9 9 9 9 9 8 8 9 8 11
16 11 5 5 4 4 3 2 0 1 3 6 2 5 3 3 6 5 6 8 7 5 5 8 9 9 9 9 8 8 8 7 5 5 4 4 4 4 4 6 6 6 5 4 5 7 7 8 7 7 7 7 7 7 8 9 9 8 8 8 9 8 8 7 8 8 9 8 7 8 8 8 8 7 8 8 9 9 8 9 9 9 8 9 8 7 11
14 15 11 8 7 2 2 3 1 1 2 3 1 1 3 5 6 6 6 6 6 8 6 7 7 8 9 9 9 9 8 7 6 6 5 4 4 3 5 6 6 5 5 5 4 4 8 8 11 11 7 7 7 7 7 8 8 8 8 8 8 7 6 7 6 6 6 7 7 7 8 8 8 8 8 8 7 8 9 8 8 10 10 10 9 7 8
2 1 7 12 12 8 5 2 2 2 1 1 3 4 5 5 6 5 6 7 6 5 6 4 6 6 5 5 6 7 7 8 7 6 6 6 5 5 3 5 4 5 4 4 2 3 6 8 11 12 7 6 6 5 8 9 6 7 8 7 7 7 7 7 6 6 6 6 6 7 7 6 6 7 7 8 7 8 8 8 8 8 9 9 8 7 8
3 4 5 6 9 12 7 4 3 5 5 4 3 4 6 5 5 5 6 7 8 8 9 9 7 4 5 7 7 7 7 7 8 7 8 8 6 7 7 6 3 4 5 2 1 5 4 5 8 4 4 6 6 5 6 10 11 9 7 8 8 7 8 8 7 7 7 6 6 6 7 7 7 7 6 7 8 8 8 8 7 6 6 6 7 8 9
9 4 1 7 8 9 7 6 4 4 3 4 7 5 4 5 4 5 6 5 6 7 8 8 8 9 7 5 4 5 5 5 6 6 6 7 6 8 8 6 6 5 2 3 5 5 7 7 4 4 3 5 5 5 9 14 15 9 8 7 8 7 7 7 7 7 7 7 7 6 6 7 7 7 6 6 5 7 9 9 8 7 7 6 7 8 8
9 9 8 4 6 10 11 5 4 6 8 5 4 5 4 3 1 4 5 6 5 6 6 6 7 6 4 3 4 4 2 2 3 3 4 5 7 6 7 8 7 6 7 8 5 5 6 9 6 4 3 4 6 7 9 14 13 9 9 8 9 9 8 6 6 6 6 6 7 8 6 7 7 7 7 6 6 6 6 7 8 8 8 8 8 7 8
7 7 7 6 7 7 9 8 4 5 5 5 5 4 4 4 5 7 5 5 4 4 5 5 4 4 3 3 2 0 1 1 3 1 2 7 7 6 7 5 4 4 5 5 4 5 5 5 4 5 4 5 5 6 7 10 10 8 9 9 8 8 8 8 7 7 7 7 7 8 9 7 8 9 8 8 8 8 7 7 8 8 8 7 7 7 7
10 7 6 6 6 7 8 11 4 5 6 5 5 5 6 7 7 5 4 4 4 4 5 6 7 6 4 4 4 4 4 3 4 7 8 6 7 7 7 2 3 5 7 6 3 3 2 3 4 4 3 6 6 8 9 6 5 7 7 8 7 7 8 8 7 6 6 6 6 6 7 7 7 7 7 8 8 8 8 6 6 7 7 7 8 9 8
14 10 9 6 7 11 10 11 4 2 2 4 3 5 5 5 4 5 6 7 7 8 7 5 7 8 6 6 6 6 5 6 4 9 8 8 6 4 4 2 3 4 6 1 2 2 1 3 3 3 2 6 7 10 11 8 6 5 5 5 5 6 7 7 7 7 7 6 7 6 6 6 6 6 7 7 6 6 7 8 7 7 7 7 7 7 8
16 13 12 11 6 6 9 13 10 4 2 1 4 5 4 3 4 5 6 6 6 6 6 5 5 5 5 4 5 5 5 4 5 6 6 5 6 6 5 4 3 5 8 6 6 4 4 3 3 7 10 10 10 9 7 6 6 6 6 6 5 6 5 6 6 7 7 8 8 7 7 6 7 8 8 8 7 7 7 7 6 6 6 6 5 6 7
16 14 16 14 12 8 10 9 13 13 2 6 6 4 3 4 5 6 7 7 6 5 4 5 4 4 4 5 4 4 5 6 5 6 6 4 5 4 5 4 6 5 7 7 6 5 5 5 4 9 10 10 10 8 6 7 6 7 7 7 6 5 5 6 6 6 6 6 6 7 6 5 5 6 6 6 5 6 7 7 7 7 7 6 6 6 6
15 15 15 15 15 14 9 8 10 10 13 13 11 9 5 6 7 6 6 6 6 3 2 2 1 4 5 6 6 8 8 7 6 6 5 5 4 1 1 5 4 5 8 8 5 5 3 5 5 4 7 9 8 7 6 6 6 6 5 4 5 6 5 5 6 6 6 6 6 5 4 3 2 3 5 5 5 5 3 4 4 6 6 6 7 7 7
12 13 14 13 13 15 14 10 9 11 15 13 12 10 10 10 10 9 9 8 2 3 2 2 4 5 5 4 5 7 6 5 4 4 6 5 5 5 5 6 7 7 6 5 5 4 3 3 4 6 7 7 7 2 2 3 4 5 4 5 5 3 5 6 6 6 6 6 5 5 5 5 5 4 4 6 6 5 5 5 4 4 4 5 7 7 6
12 11 13 12 13 15 15 13 12 12 12 11 9 8 9 10 12 12 12 11 11 8 12 12 12 13 14 15 13 9 6 3 6 2 1 3 3 4 6 4 6 7 7 5 5 3 4 5 5 5 5 5 2 3 4 2 2 2 3 4 3 3 4 3 4 5 6 6 6 4 5 5 6 5 5 6 6 7 7 7 6 5 4 5 7 6 6
12 11 10 10 11 14 14 13 11 11 11 10 10 9 8 9 11 12 11 10 9 10 10 12 13 12 12 12 12 10 9 10 8 4 3 3 4 5 4 3 4 3 3 4 3 1 2 3 4 4 3 2 2 3 4 4 2 3 3 4 4 3 2 3 5 5 6 7 8 8 7 7 7 7 7 7 7 6 7 6 6 6 7 7 7 7 6
10 10 11 11 12 13 12 11 11 10 9 10 10 10 7 10 12 11 10 10 9 7 9 10 11 11 10 10 9 10 11 12 11 10 10 11 11 11 10 9 7 7 6 3 2 2 4 3 2 2 0 1 2 5 3 2 5 5 6 7 6 5 4 5 5 5 3 3 3 4 5 4 4 4 6 7 8 7 7 7 7 8 11 8 8 7 6
10 10 10 9 9 9 9 9 9 9 10 11 10 10 9 9 10 9 11 11 9 9 9 9 10 11 10 10 9 10 10 10 10 11 11 10 10 11 12 10 11 12 10 7 7 7 7 6 4 1 2 4 6 6 3 4 5 6 6 5 5 5 5 4 4 4 4 4 4 5 5 5 6 6 3 4 6 5 5 6 6 6 5 5 6 6 6
8 8 8 7 7 7 8 9 9 10 11 11 11 11 11 9 9 10 12 13 11 10 9 9 10 10 10 10 10 10 9 10 9 9 10 11 10 9 11 13 11 12 11 10 10 10 9 10 10 11 12 10 9 8 4 3 5 6 5 5 5 4 6 5 5 4 3 3 5 4 3 5 5 5 6 6 6 6 7 7 6 6 7 5 5 5 5
Wind_Direction
262 264 264 270 286 275 273 223 228 225 232 244 241 246 236 30 168 226 258 304 292 287 351 322 2 346 346 311 79 94 101 61 82 131 129 133 142 148 154 160 164 166 168 172 173 175 173 167 166 171 173 175 174 176 173 172 165 168 163 163 164 162 162 163 164 161 157 154 152 149 149 150 153 157 160 161 160 157 148 146 151 155 154 152 153 154 157
295 289 285 292 290 284 273 231 219 227 227 239 251 256 271 256 251 252 268 280 264 285 305 308 22 356 356 308 290 37 81 77 67 127 142 148 156 160 163 165 169 171 170 170 170 167 168 170 171 171 172 175 176 173 173 169 163 159 159 163 163 162 163 162 157 155 151 150 152 153 155 157 158 159 160 160 159 155 149 150 153 154 153 157 157 158 157
257 250 242 240 254 264 286 263 215 221 227 230 234 250 257 262 268 262 249 277 296 283 242 272 19 4 6 350 10 216 121 108 91 57 76 143 151 162 164 165 169 170 167 165 163 166 171 173 173 171 171 173 170 169 169 167 162 161 161 159 160 161 161 157 154 151 149 151 154 159 159 158 159 161 162 159 158 154 150 153 157 158 157 161 160 157 148
265 274 302 330 333 314 316 308 269 218 219 230 229 231 232 239 242 238 257 262 266 277 292 301 26 14 5 336 318 316 75 129 120 120 117 90 97 124 153 166 163 160 161 161 166 173 175 171 169 168 169 168 166 171 168 165 159 157 161 161 160 161 155 154 154 152 151 152 157 160 160 161 163 164 160 158 158 154 152 155 157 152 160 159 139 138 136
274 320 6 1 343 359 328 303 281 246 225 224 236 237 229 227 213 230 230 242 195 210 242 268 317 25 337 333 305 307 341 51 144 153 145 139 121 113 109 150 162 161 164 169 172 173 168 166 167 170 166 164 168 167 165 159 150 157 161 162 160 157 156 154 156 154 153 157 160 161 164 162 163 163 161 159 157 155 155 151 142 147 150 136 140 141 141
283 352 3 1 33 336 253 250 311 320 273 238 234 242 237 242 190 194 187 207 191 181 175 148 151 336 333 290 268 286 42 333 304 177 167 159 165 165 178 198 175 172 173 175 175 170 167 167 167 166 167 164 161 158 155 151 158 157 159 163 161 159 157 157 156 156 156 158 160 162 163 164 163 164 162 162 157 147 140 140 140 136 136 138 141 146 145
260 33 26 26 311 252 263 304 304 312 307 304 262 244 243 248 233 226 240 231 256 222 200 157 148 152 242 255 275 295 272 206 200 190 168 156 163 177 184 191 181 176 175 169 167 165 164 164 161 156 157 152 151 155 156 158 162 159 160 162 163 158 157 158 157 158 159 161 160 161 164 166 167 167 164 156 147 145 148 151 149 151 149 145 147 143 141
77 66 119 213 232 278 297 290 291 327 343 335 339 297 268 250 240 235 245 241 236 249 200 173 190 171 191 220 237 244 253 223 165 156 167 170 161 176 185 182 179 176 170 164 166 169 163 154 157 158 156 150 151 155 155 158 162 159 163 162 163 157 155 157 160 162 161 162 160 161 165 168 169 168 164 156 147 143 138 129 122 123 127 136 145 147 145
155 189 236 242 294 302 302 333 10 23 333 324 324 298 288 272 252 210 225 227 224 231 238 179 202 217 218 206 218 243 252 244 207 160 170 165 173 169 173 171 181 177 172 169 166 155 155 158 154 154 150 149 148 150 156 159 160 158 156 162 161 160 157 159 160 161 162 160 162 165 167 169 172 167 157 148 140 141 141 143 141 145 148 149 148 147 147
113 177 265 306 327 320 293 268 280 315 318 311 300 270 282 289 267 226 198 214 212 212 233 250 240 227 227 244 240 250 261 215 208 191 189 184 182 179 174 171 174 178 174 162 156 154 155 154 151 146 148 147 148 153 158 158 157 158 160 161 160 157 157 158 159 161 164 165 165 167 169 172 171 164 151 146 150 156 156 156 155 156 152 153 161 158 154
73 104 217 237 235 241 221 269 282 319 312 302 275 218 300 300 320 290 258 225 200 186 190 223 266 252 257 243 253 261 234 284 203 199 218 206 188 166 161 163 166 167 163 159 157 153 151 150 151 148 147 148 151 157 159 161 159 158 163 162 161 160 157 157 159 161 165 167 167 165 169 172 165 158 154 155 156 154 151 149 150 149 155 157 159 159 161
216 204 210 242 214 240 248 234 207 221 251 294 316 258 270 308 336 322 352 341 258 215 196 195 213 197 229 238 257 227 224 223 235 223 230 216 188 162 170 171 164 160 149 142 149 154 157 155 147 147 149 153 157 157 159 163 163 165 167 165 159 152 152 158 160 160 165 168 166 168 169 162 156 153 145 142 150 149 147 150 148 150 149 153 158 170 169
245 220 255 274 290 274 252 256 270 246 263 335 267 197 270 321 319 319 323 324 323 227 212 196 211 210 220 221 216 236 226 258 269 320 254 167 158 158 160 151 140 145 153 156 159 157 152 147 146 149 150 152 157 157 155 164 173 168 158 153 157 156 157 159 162 163 166 173 166 155 153 159 152 147 148 148 146 146 148 147 148 154 155 157 163 172 176
237 229 232 235 241 241 223 252 272 282 28 314 219 229 298 306 331 338 331 316 303 344 166 203 212 214 231 224 192 194 205 212 240 183 271 160 158 162 153 149 148 146 149 149 146 145 147 150 149 149 149 152 157 158 161 168 167 151 148 153 157 158 161 164 165 165 166 160 157 165 161 152 150 149 145 147 151 150 150 153 158 161 160 164 169 163 169
254 191 270 324 323 267 204 236 17 35 119 223 270 293 314 338 338 351 339 331 315 308 304 208 211 237 171 146 161 208 232 213 197 189 161 129 151 141 132 147 149 143 144 148 149 146 149 150 150 151 151 152 157 160 168 166 156 152 149 157 159 159 162 165 166 164 164 160 158 158 160 158 154 152 151 151 154 157 158 161 163 167 172 167 164 170 160
196 234 231 234 210 246 191 115 155 241 206 240 271 320 310 327 350 1 337 325 331 332 314 289 233 184 172 149 143 134 298 281 254 146 146 162 159 150 151 146 147 143 141 143 140 140 144 147 148 151 152 154 158 162 165 156 155 152 152 159 160 160 162 160 155 158 155 155 155 156 156 154 152 149 153 153 155 161 161 163 166 162 168 163 165 170 166
295 209 231 275 321 13 24 76 118 263 265 299 353 297 286 311 349 350 334 323 329 331 347 310 183 146 144 138 141 143 284 36 29 31 35 16 123 149 145 142 141 140 140 140 138 137 142 148 152 153 156 150 154 160 161 154 157 157 153 153 153 156 152 146 148 149 151 152 151 151 152 152 152 154 154 153 152 161 163 166 167 168 164 165 169 170 169
289 292 29 338 21 27 9 323 216 183 54 49 160 264 289 323 319 255 247 288 356 347 358 354 320 142 157 126 130 102 73 61 58 58 55 60 34 12 20 116 133 135 138 141 143 145 150 154 157 157 155 152 155 161 156 155 154 154 149 147 145 147 144 146 148 148 148 149 147 151 152 155 157 161 160 161 160 163 167 168 168 163 163 165 168 168 171
330 331 345 2 347 30 40 330 312 330 102 144 22 344 307 288 299 318 338 354 31 6 0 3 322 301 113 109 97 92 94 87 82 88 92 83 71 38 317 329 330 144 145 145 146 146 148 153 151 156 152 155 156 156 161 153 151 150 148 143 142 145 149 149 150 152 149 149 146 147 151 150 153 156 160 162 161 163 166 166 168 168 168 168 165 170 169
74 251 323 332 331 9 99 247 284 300 333 7 42 339 279 278 322 314 320 354 30 29 18 358 312 319 353 40 71 85 92 111 112 116 114 118 119 88 21 16 323 328 134 140 142 144 143 149 150 151 154 159 160 155 155 148 149 146 144 146 146 148 149 149 149 150 149 147 148 152 156 156 157 160 168 169 168 172 174 175 173 175 173 174 175 175 180
273 267 307 318 329 346 327 275 258 252 266 350 312 275 276 339 1 351 349 332 355 44 41 305 266 8 4 352 2 81 81 78 77 77 107 122 116 89 89 255 180 317 256 153 147 143 142 144 145 146 148 153 153 154 152 148 146 145 145 145 145 146 144 140 142 146 147 153 155 156 159 164 172 174 172 174 176 182 186 177 177 171 173 178 181 184 181
299 238 267 315 21 296 251 253 299 317 336 19 306 301 295 350 11 7 53 145 211 358 216 229 55 48 31 14 353 25 69 89 97 97 94 98 99 114 130 232 71 78 334 118 122 137 137 137 135 138 138 138 142 146 145 147 145 142 143 144 141 143 144 144 144 144 149 156 157 160 162 164 161 161 132 160 178 171 170 174 169 172 172 176 184 181 181
245 232 212 210 243 269 274 271 283 287 291 358 350 324 317 323 353 327 358 13 26 284 279 5 53 62 59 35 22 4 352 6 52 67 81 81 85 100 117 113 87 106 141 188 169 159 155 142 129 134 136 143 144 140 137 142 146 146 145 140 139 143 148 150 152 151 153 156 159 159 161 160 160 158 147 133 142 150 158 167 171 172 177 183 185 182 178
244 258 266 240 216 240 290 339 313 307 324 324 336 316 309 298 332 313 343 36 22 2 360 17 35 60 71 61 33 7 338 341 1 37 44 57 68 73 81 92 95 91 121 221 181 163 158 151 147 147 142 147 148 140 134 139 142 142 143 144 148 150 150 145 147 150 157 158 158 159 159 159 158 158 155 147 153 168 161 170 180 175 174 181 186 184 181
262 232 94 277 258 270 293 298 299 304 306 305 318 310 312 319 329 315 44 30 23 30 27 33 11 19 70 71 52 320 264 226 122 70 48 40 38 56 48 77 124 118 140 191 178 152 146 141 147 150 151 157 156 145 139 141 142 142 144 144 143 143 139 142 146 148 153 157 161 163 163 161 161 161 159 163 168 179 219 208 186 175 170 175 186 193 186
207 257 186 210 234 255 226 211 192 221 232 233 287 301 289 275 305 0 11 52 36 25 46 41 45 24 70 117 149 230 147 86 70 60 71 66 59 56 61 33 45 70 34 234 157 145 141 138 136 137 139 142 149 135 140 148 151 151 152 149 146 146 147 149 152 159 163 165 168 168 169 170 170 168 170 173 176 167 157 142 133 211 192 175 179 183 180
227 228 4 339 303 91 75 36 306 271 188 52 276 266 273 301 320 326 296 58 57 47 44 37 48 44 33 24 79 115 111 103 82 80 90 84 92 97 85 69 39 14 283 231 120 114 116 113 124 140 148 152 139 122 133 136 135 137 137 131 124 129 138 148 157 162 164 169 173 172 172 174 173 176 175 171 164 167 169 172 176 171 181 189 199 186 175
317 306 57 246 289 310 118 129 245 256 157 222 253 261 286 324 353 7 41 39 35 40 31 27 31 28 36 28 47 37 73 90 87 73 58 51 27 49 101 111 114 93 31 6 37 89 98 104 118 131 137 132 131 134 138 142 142 139 127 126 131 141 148 149 155 164 166 170 175 172 170 179 181 181 175 162 163 171 167 168 166 165 170 180 179 227 205
333 324 303 269 279 301 291 258 269 297 272 210 237 271 294 332 321 339 18 54 69 68 34 13 16 31 46 39 53 61 56 74 81 83 91 107 117 118 122 133 135 149 154 131 103 67 82 93 101 104 106 123 128 127 130 134 133 126 126 136 143 152 162 167 164 162 160 158 156 167 177 174 167 172 176 169 161 158 162 166 167 169 168 150 128 103 62
307 306 314 345 351 2 350 342 330 345 356 337 341 340 300 260 331 4 49 46 46 50 37 37 20 16 40 45 48 58 66 87 97 90 82 80 80 86 95 98 93 79 78 73 82 87 92 98 97 95 98 112 119 122 126 130 137 144 147 153 157 160 163 164 156 156 160 165 163 166 170 168 166 165 171 173 170 167 165 167 166 167 174 171 170 173 181
284 283 322 327 330 338 355 312 330 357 347 344 351 339 325 18 53 43 23 22 35 31 17 26 26 28 31 35 37 62 71 86 100 98 92 84 82 87 86 89 99 107 103 99 93 97 104 105 103 108 117 121 131 138 141 139 138 137 139 148 157 160 155 154 157 162 163 155 153 157 158 155 150 149 166 168 172 171 163 156 166 177 183 183 182 183 178
291 337 345 338 332 355 320 332 357 6 357 346 351 343 338 68 56 45 33 39 33 28 27 25 19 16 10 359 1 47 60 86 105 106 105 99 90 86 94 100 108 113 121 124 114 113 108 110 117 138 135 125 117 112 121 128 134 137 144 145 140 137 135 137 137 143 150 154 155 160 170 167 164 166 166 171 177 172 162 165 178 181 183 184 187 191 167
16 330 332 325 347 344 318 358 30 3 8 11 358 344 347 62 61 49 36 31 24 12 12 353 341 13 8 1 21 38 46 60 86 99 104 109 113 110 103 108 114 118 129 140 135 127 128 134 144 143 131 127 127 124 125 129 131 130 129 130 131 136 144 152 148 147 144 146 161 178 182 182 170 172 178 174 168 166 173 178 177 181 191 192 192 191 168
188 212 226 212 179 211 237 293 17 18 17 34 359 333 341 66 62 50 34 27 12 7 357 348 333 32 18 18 38 40 36 36 41 57 87 106 110 113 120 121 121 125 139 128 107 119 128 134 138 138 129 130 129 129 128 123 117 118 124 122 128 135 144 140 143 154 158 165 169 171 170 166 166 175 166 167 165 173 180 178 176 183 190 192 195 194 167
339 325 302 277 251 210 171 157 223 9 64 98 286 315 26 51 72 63 47 35 14 353 17 32 30 39 41 33 31 33 37 36 29 44 62 75 82 92 102 94 97 97 92 88 103 121 136 134 134 130 126 123 126 131 135 133 131 133 137 136 141 149 152 151 159 165 170 170 161 162 162 161 166 167 165 169 172 173 175 174 175 182 188 197 201 180 169
340 311 323 336 349 21 171 195 193 196 115 111 103 321 46 53 55 51 52 47 25 13 17 44 49 51 46 38 34 29 23 14 21 25 32 35 27 43 82 98 97 87 86 54 36 100 134 134 135 137 141 142 144 148 146 142 137 141 139 134 140 145 148 157 161 153 159 160 165 170 174 171 163 162 165 174 177 179 182 187 175 184 194 194 205 175 161
161 12 346 339 327 308 347 319 239 216 183 150 134 96 74 57 53 50 57 51 31 17 13 31 63 60 58 59 57 38 27 18 11 15 16 12 10 5 54 92 85 91 86 70 8 47 120 142 146 140 132 137 146 153 155 144 131 136 132 139 144 151 151 156 157 159 168 172 169 165 162 159 167 175 176 183 184 183 186 196 190 185 190 195 187 159 162
27 31 359 344 308 308 306 305 360 47 35 38 72 82 81 78 54 57 64 54 37 34 36 34 20 39 70 53 47 42 27 17 11 11 12 7 17 54 45 52 61 86 100 155 151 88 64 91 109 94 128 146 152 170 140 125 127 137 141 148 152 156 160 162 160 163 168 168 165 160 166 179 182 178 178 177 184 183 191 198 198 198 191 167 161 163 166
356 12 170 248 275 290 304 325 10 34 35 91 102 94 85 80 85 83 74 62 64 58 44 30 37 34 29 49 53 44 36 17 9 17 15 13 16 56 56 51 34 25 62 103 82 75 104 113 106 73 71 169 150 120 136 142 140 141 141 144 147 153 157 165 166 169 169 164 164 169 172 177 182 179 183 189 186 186 194 201 198 196 187 166 156 166 171
354 359 352 356 15 343 323 316 10 48 27 24 80 104 92 84 54 79 89 70 58 72 61 47 48 40 22 28 70 54 8 3 345 15 42 32 50 51 41 32 22 25 32 52 58 71 86 106 108 105 75 79 118 138 147 151 146 137 136 140 143 151 164 171 162 164 173 165 168 171 175 170 177 185 191 194 198 201 194 197 198 195 191 181 175 169 163
357 346 343 10 16 5 330 333 25 70 66 58 43 36 50 66 76 88 72 72 63 71 80 81 65 33 2 355 353 259 261 297 326 359 71 70 70 65 64 31 353 14 27 34 50 48 51 60 111 126 123 105 103 113 128 147 141 136 139 146 157 156 158 173 180 172 176 174 174 176 184 179 178 184 190 195 203 206 207 205 199 192 182 175 171 170 168
350 348 347 0 14 10 359 317 317 35 47 49 51 39 46 51 72 88 93 89 82 88 86 70 68 52 7 336 335 7 23 57 65 42 44 77 114 111 87 33 351 19 357 6 16 56 43 74 67 60 89 114 109 112 101 80 102 129 141 149 161 166 162 167 173 176 169 172 179 181 179 182 183 187 188 191 196 206 208 197 187 186 182 174 170 172 170
347 353 341 342 20 7 354 335 321 28 66 80 85 76 63 70 74 67 55 46 48 53 58 48 37 36 24 22 27 25 9 353 32 74 60 55 57 76 104 90 41 15 2 11 293 241 92 69 70 36 106 123 121 128 120 131 120 100 117 129 148 161 165 171 171 170 171 174 182 187 181 182 184 191 199 204 204 197 185 191 196 185 178 175 175 172 174
346 356 355 348 5 24 351 357 335 51 74 126 100 80 79 73 68 76 75 68 64 67 68 56 42 29 18 16 20 10 358 9 68 97 97 79 50 34 39 65 42 20 28 34 28 65 73 59 81 94 87 102 113 110 112 109 98 101 103 105 100 108 119 132 152 163 173 179 181 187 191 184 180 187 189 193 188 187 185 183 178 174 177 173 175 177 179
354 359 354 350 346 11 19 358 347 321 21 79 96 106 90 72 78 89 82 79 83 73 60 60 42 29 12 6 12 357 5 35 66 90 86 73 57 17 353 37 44 44 49 55 57 56 50 46 75 109 112 104 93 97 102 108 117 121 121 114 103 95 112 123 125 129 138 144 152 157 151 154 144 152 167 165 162 164 181 187 188 184 176 181 183 185 187
355 360 357 354 2 359 5 9 355 357 26 25 26 17 23 63 69 82 91 97 93 104 109 93 73 53 37 28 26 50 60 56 57 72 95 130 144 170 0 58 84 85 79 74 58 52 33 41 59 100 118 124 119 112 120 129 140 139 140 141 146 158 166 156 149 151 149 149 158 163 164 164 153 148 154 169 176 176 182 191 185 183 185 184 187 194 194
354 1 1 1 1 1 354 12 351 10 31 27 24 17 15 26 41 35 26 16 23 115 92 53 56 54 41 41 73 66 53 61 42 56 93 93 100 104 88 72 61 57 58 55 45 35 32 44 52 45 39 27 12 38 87 136 156 155 146 135 173 172 155 172 171 172 165 162 167 173 183 190 197 189 165 167 176 189 199 197 207 209 193 192 199 198 197
357 3 2 355 9 10 8 14 15 25 26 16 4 10 19 27 31 27 20 24 16 30 41 39 38 35 32 26 18 19 21 64 111 89 123 132 143 128 120 104 107 101 86 76 70 63 70 71 60 51 38 19 354 335 349 335 248 204 158 155 168 194 199 188 182 183 178 167 168 171 186 204 208 202 190 181 186 190 198 201 210 217 209 184 188 179 171
2 5 6 2 14 24 19 8 5 18 16 358 3 2 10 30 36 29 20 14 29 47 44 38 35 32 27 23 24 23 22 26 43 25 2 38 78 87 96 134 142 106 96 95 106 96 26 32 53 55 45 40 313 308 291 275 212 168 142 141 158 176 178 159 171 175 171 167 172 181 191 193 196 187 188 196 201 199 194 196 194 189 191 183 175 175 174
3 8 17 16 16 22 18 9 9 5 7 6 7 354 4 37 42 28 14 16 18 26 48 41 34 28 21 18 19 19 18 21 25 34 39 36 33 25 16 15 8 24 60 84 50 4 342 341 353 69 347 302 307 299 294 99 84 78 104 117 119 111 92 88 87 94 124 143 153 154 153 163 172 167 178 189 194 195 201 200 191 191 184 175 173 181 186
15 18 17 12 17 22 23 19 6 2 17 16 9 360 7 45 53 40 30 15 17 28 38 40 36 28 20 15 15 19 17 19 24 29 33 30 30 35 30 28 30 23 13 18 20 13 351 331 322 5 353 350 337 331 349 77 98 93 84 98 105 112 102 93 96 98 89 115 130 129 130 130 128 126 127 141 147 162 169 172 171 171 166 176 181 190 192
23 20 15 18 17 15 22 24 17 16 20 21 20 17 13 22 43 43 36 24 26 26 28 35 32 24 21 16 12 13 14 19 25 29 32 32 29 29 27 29 28 23 22 28 27 25 18 20 16 11 5 356 341 338 341 58 88 98 99 91 93 85 78 86 86 89 105 119 120 131 127 142 133 123 137 153 160 165 167 171 182 189 186 189 188 182 190